When you browse on this site, cookies collect data to enhance your experience and personalize the content and advertising you see.
Visit our Privacy Policy to learn more. By continuing to use the site, you agree to this use of cookies and data.
  • In Lithuania
  • List of Countries
  • For 7 days
  • Water Temperature
  • Satellite Maps
  • Weather Map
  • Weather Widgets
  • user-avatar
    Login

    Hourly Weather Kaprun

    Today, 26 March, Tuesday

    Time Temperature Precipitation Wind Pressure Humidity
    00:00 -12°C° 0.2 mm 4 mps 594 mmHg 95%
    01:00 -12°C° 0 mm 3 mps 594 mmHg 95%
    02:00 -12°C° 0.2 mm 3 mps 594 mmHg 95%
    03:00 -12°C° 0.2 mm 3 mps 594 mmHg 95%
    04:00 -12°C° 0.2 mm 3 mps 594 mmHg 96%
    05:00 -12°C° 0.1 mm 3 mps 595 mmHg 95%
    06:00 -12°C° 0.1 mm 3 mps 595 mmHg 95%
    07:00 -13°C° 0.1 mm 3 mps 596 mmHg 94%
    08:00 -10°C° 0 mm 3 mps 596 mmHg 89%
    09:00 -9°C° 0 mm 3 mps 596 mmHg 83%
    10:00 -8°C° 0 mm 3 mps 597 mmHg 78%
    11:00 -7°C° 0 mm 3 mps 597 mmHg 76%
    12:00 -7°C° 0 mm 3 mps 597 mmHg 74%
    13:00 -6°C° 0 mm 3 mps 597 mmHg 73%
    14:00 -6°C° 0 mm 3 mps 597 mmHg 74%
    15:00 -6°C° 0 mm 3 mps 597 mmHg 75%
    16:00 -6°C° 0 mm 3 mps 597 mmHg 77%
    17:00 -8°C° 0 mm 3 mps 597 mmHg 83%
    18:00 -9°C° 0 mm 2 mps 596 mmHg 88%
    19:00 -10°C° 0 mm 2 mps 596 mmHg 94%
    20:00 -12°C° 0 mm 2 mps 596 mmHg 94%
    21:00 -12°C° 0 mm 2 mps 596 mmHg 94%
    22:00 -12°C° 0 mm 2 mps 597 mmHg 95%
    23:00 -13°C° 0 mm 2 mps 597 mmHg 95%

    Tomorrow, 27 March, Wednesday

    Time Temperature Precipitation Wind Pressure Humidity
    00:00 -13°C° 0 mm 2 mps 597 mmHg 95%
    01:00 -13°C° 0 mm 2 mps 597 mmHg 95%
    02:00 -13°C° 0 mm 2 mps 597 mmHg 93%
    03:00 -11°C° 0 mm 1 mps 597 mmHg 92%
    04:00 -10°C° 0 mm 1 mps 597 mmHg 91%
    05:00 -10°C° 0.1 mm 1 mps 597 mmHg 91%
    06:00 -10°C° 0.1 mm 2 mps 598 mmHg 90%
    07:00 -9°C° 0.1 mm 2 mps 599 mmHg 89%
    08:00 -8°C° 0 mm 2 mps 599 mmHg 87%
    09:00 -6°C° 0 mm 2 mps 600 mmHg 84%
    10:00 -5°C° 0 mm 2 mps 600 mmHg 82%
    11:00 -5°C° 0 mm 3 mps 601 mmHg 82%
    12:00 -5°C° 0 mm 3 mps 601 mmHg 82%
    13:00 -4°C° 0 mm 3 mps 601 mmHg 83%
    14:00 -3°C° 0.1 mm 2 mps 600 mmHg 83%
    15:00 -4°C° 0.1 mm 2 mps 600 mmHg 84%
    16:00 -4°C° 0.1 mm 2 mps 600 mmHg 84%
    17:00 -5°C° 0 mm 2 mps 600 mmHg 88%
    18:00 -6°C° 0 mm 2 mps 600 mmHg 92%
    19:00 -6°C° 0 mm 2 mps 600 mmHg 95%
    20:00 -6°C° 0 mm 1 mps 600 mmHg 95%
    21:00 -6°C° 0 mm 1 mps 601 mmHg 95%
    22:00 -7°C° 0 mm 1 mps 601 mmHg 95%
    23:00 -7°C° 0 mm 1 mps 601 mmHg 95%

    Day after tomorrow, 28 March, Thursday

    Time Temperature Precipitation Wind Pressure Humidity
    00:00 -7°C° 0 mm 1 mps 601 mmHg 94%
    01:00 -8°C° 0 mm 1 mps 600 mmHg 94%
    02:00 -8°C° 0 mm 1 mps 600 mmHg 93%
    03:00 -8°C° 0 mm 1 mps 600 mmHg 92%
    04:00 -8°C° 0 mm 1 mps 600 mmHg 91%
    05:00 -8°C° 0 mm 1 mps 600 mmHg 89%
    06:00 -7°C° 0 mm 1 mps 601 mmHg 88%
    07:00 -6°C° 0 mm 1 mps 601 mmHg 86%
    08:00 -6°C° 0.1 mm 2 mps 602 mmHg 85%
    09:00 -4°C° 0.1 mm 2 mps 603 mmHg 85%
    10:00 -2°C° 0.1 mm 2 mps 603 mmHg 84%
    11:00 -2°C° 0.1 mm 2 mps 603 mmHg 84%
    12:00 -1°C° 0.1 mm 2 mps 603 mmHg 85%
    13:00 -1°C° 0.1 mm 3 mps 603 mmHg 85%
    14:00 -1°C° 0.2 mm 3 mps 603 mmHg 86%
    15:00 -1°C° 0.2 mm 3 mps 603 mmHg 87%
    16:00 -1°C° 0.2 mm 3 mps 603 mmHg 88%
    17:00 -2°C° 0.1 mm 2 mps 602 mmHg 91%
    18:00 -3°C° 0.1 mm 2 mps 602 mmHg 94%
    19:00 -4°C° 0.1 mm 2 mps 602 mmHg 97%
    20:00 -3°C° 0 mm 1 mps 602 mmHg 97%
    21:00 -3°C° 0 mm 1 mps 603 mmHg 96%
    22:00 -3°C° 0 mm 1 mps 603 mmHg 96%
    23:00 -4°C° 0 mm 1 mps 603 mmHg 95%

    29 March, Friday

    Time Temperature Precipitation Wind Pressure Humidity
    00:00 -6°C° 0 mm 1 mps 602 mmHg 95%
    01:00 -7°C° 0 mm 1 mps 602 mmHg 94%
    02:00 -7°C° 0 mm 1 mps 602 mmHg 92%
    03:00 -7°C° 0 mm 1 mps 602 mmHg 91%
    04:00 -8°C° 0 mm 1 mps 601 mmHg 89%
    05:00 -7°C° 0 mm 1 mps 602 mmHg 86%
    06:00 -6°C° 0 mm 1 mps 602 mmHg 83%
    07:00 -6°C° 0 mm 1 mps 602 mmHg 80%
    08:00 -2°C° 0 mm 1 mps 603 mmHg 75%
    09:00 0°C° 0 mm 1 mps 604 mmHg 69%
    10:00 +3°C° 0 mm 1 mps 605 mmHg 64%
    11:00 +4°C° 0 mm 1 mps 605 mmHg 64%
    12:00 +4°C° 0 mm 1 mps 605 mmHg 64%
    13:00 +5°C° 0 mm 1 mps 605 mmHg 63%
    14:00 +5°C° 0 mm 1 mps 605 mmHg 64%
    15:00 +5°C° 0 mm 1 mps 604 mmHg 64%
    16:00 +5°C° 0 mm 1 mps 604 mmHg 64%
    17:00 +3°C° 0 mm 1 mps 603 mmHg 67%
    18:00 +1°C° 0 mm 1 mps 602 mmHg 71%
    19:00 -2°C° 0 mm 1 mps 601 mmHg 74%
    20:00 -4°C° 0 mm 2 mps 601 mmHg 72%
    21:00 -4°C° 0 mm 2 mps 601 mmHg 71%
    22:00 -5°C° 0 mm 2 mps 601 mmHg 69%
    23:00 -5°C° 0 mm 2 mps 601 mmHg 67%

    30 March, Saturday

    Time Temperature Precipitation Wind Pressure Humidity
    00:00 -5°C° 0 mm 2 mps 601 mmHg 64%
    01:00 -5°C° 0 mm 2 mps 601 mmHg 62%
    02:00 -5°C° 0 mm 2 mps 601 mmHg 59%
    03:00 -6°C° 0 mm 2 mps 600 mmHg 56%
    04:00 -6°C° 0 mm 2 mps 600 mmHg 53%
    05:00 -3°C° 0 mm 1 mps 600 mmHg 51%
    06:00 -3°C° 0 mm 1 mps 600 mmHg 48%
    07:00 -2°C° 0 mm 1 mps 600 mmHg 46%
    08:00 0°C° 0 mm 1 mps 601 mmHg 48%
    09:00 +2°C° 0 mm 0 mps 602 mmHg 50%
    10:00 +5°C° 0 mm 0 mps 603 mmHg 51%
    11:00 +5°C° 0 mm 0 mps 603 mmHg 51%
    12:00 +6°C° 0 mm 0 mps 602 mmHg 51%
    13:00 +7°C° 0 mm 0 mps 602 mmHg 52%
    14:00 +7°C° 0 mm 1 mps 602 mmHg 53%
    15:00 +7°C° 0 mm 1 mps 601 mmHg 55%
    16:00 +7°C° 0 mm 1 mps 600 mmHg 57%
    17:00 +4°C° 0 mm 1 mps 599 mmHg 64%
    18:00 +1°C° 0 mm 0 mps 598 mmHg 72%
    19:00 -2°C° 0 mm 0 mps 597 mmHg 79%
    20:00 -2°C° 0 mm 0 mps 597 mmHg 78%
    21:00 -1°C° 0 mm 1 mps 597 mmHg 78%
    22:00 -2°C° 0 mm 1 mps 597 mmHg 77%
    23:00 -2°C° 0 mm 1 mps 597 mmHg 77%

    31 March, Sunday

    Time Temperature Precipitation Wind Pressure Humidity
    00:00 -2°C° 0 mm 1 mps 596 mmHg 78%
    01:00 -2°C° 0 mm 1 mps 596 mmHg 78%
    02:00 -2°C° 0 mm 1 mps 596 mmHg 82%
    03:00 -3°C° 0 mm 1 mps 596 mmHg 86%
    04:00 -3°C° 0 mm 1 mps 595 mmHg 90%
    05:00 -2°C° 0 mm 1 mps 596 mmHg 91%
    06:00 -1°C° 0 mm 1 mps 596 mmHg 91%
    07:00 0°C° 0 mm 1 mps 596 mmHg 92%
    08:00 +1°C° 0.1 mm 1 mps 596 mmHg 86%
    09:00 +1°C° 0.1 mm 2 mps 597 mmHg 80%
    10:00 +2°C° 0.1 mm 2 mps 597 mmHg 74%
    11:00 +2°C° 0 mm 2 mps 596 mmHg 73%
    12:00 +3°C° 0 mm 2 mps 596 mmHg 72%
    13:00 +3°C° 0 mm 2 mps 596 mmHg 70%
    14:00 +3°C° 0.2 mm 2 mps 596 mmHg 71%
    15:00 +3°C° 0.2 mm 2 mps 595 mmHg 73%
    16:00 +3°C° 0.2 mm 2 mps 595 mmHg 74%
    17:00 +2°C° 0.2 mm 2 mps 594 mmHg 81%
    18:00 -1°C° 0.2 mm 2 mps 594 mmHg 88%
    19:00 -2°C° 0.2 mm 2 mps 594 mmHg 95%
    20:00 -2°C° 0.3 mm 2 mps 594 mmHg 95%
    21:00 -2°C° 0.3 mm 2 mps 595 mmHg 96%
    22:00 -3°C° 0.3 mm 2 mps 595 mmHg 96%
    23:00 -3°C° 0.5 mm 2 mps 595 mmHg 96%
    Show more